Theta_e
337 337 337 336 336 335 335 335 334 334 333 332 330 329 329 328 327 326 326 325 324 323 320 316 313 312 312 313 313 315 316 316 315 314 313 312 312 311 310 309 309 309
337 337 336 336 335 334 334 334 334 334 333 332 330 328 327 327 326 325 325 324 322 320 317 314 312 311 312 313 313 313 314 313 313 312 311 311 310 309 308 308 308 307
337 336 335 335 334 334 334 333 333 333 332 331 329 327 326 325 324 324 323 322 320 318 314 313 313 311 311 312 312 312 312 311 311 310 309 309 308 308 307 307 307 306
336 335 335 334 334 334 333 333 332 331 331 330 328 326 325 324 323 322 321 320 318 315 313 312 312 311 310 311 311 311 311 310 309 309 308 308 307 307 307 306 306 305
336 335 334 334 334 333 333 332 331 330 329 329 326 325 324 323 322 321 320 318 315 313 313 312 310 310 310 310 310 310 310 309 308 308 307 307 307 306 306 305 305 305
335 334 334 333 333 332 332 331 330 329 328 327 325 324 324 323 322 321 318 315 313 313 313 312 310 310 310 310 309 309 309 308 308 307 306 306 305 305 305 304 304 305
334 334 333 333 333 332 331 330 329 328 328 327 324 323 323 322 321 320 317 314 313 313 312 310 310 310 310 309 308 308 308 308 307 306 305 305 305 304 304 304 304 305
333 333 333 333 333 332 330 328 327 327 327 326 324 322 322 321 320 317 314 313 313 312 311 310 310 311 310 309 308 308 308 307 306 305 305 305 305 305 305 305 305 305
333 333 333 332 332 331 329 327 327 327 326 325 323 322 321 320 318 315 313 313 312 311 310 310 311 311 311 309 308 307 307 307 306 305 306 307 307 306 306 306 305 305
332 332 332 332 331 330 329 327 326 326 325 323 322 321 320 318 317 315 313 312 312 311 310 310 310 311 310 309 308 307 307 307 306 307 307 307 307 306 306 306 306 306
332 332 331 331 330 330 329 327 325 324 323 322 321 320 319 318 316 314 313 312 312 311 310 310 310 310 309 308 308 307 307 306 307 307 307 306 306 306 306 305 305 305
332 331 330 330 331 330 328 326 324 322 321 321 321 320 319 317 316 314 313 311 311 311 310 310 309 309 309 308 307 307 306 306 306 306 306 306 305 305 305 305 305 305
331 330 330 331 331 329 328 325 323 321 320 320 320 319 318 317 315 313 312 311 311 311 310 309 309 309 309 308 307 306 306 306 306 306 306 305 305 305 305 305 305 305
331 330 330 330 330 328 327 324 321 320 320 320 319 319 318 316 314 312 311 311 311 311 310 309 309 309 308 308 308 306 306 306 306 306 306 305 305 305 305 305 305 305
330 330 329 329 329 327 325 323 320 319 319 319 319 318 316 314 313 312 311 311 311 310 310 310 310 309 308 308 308 307 306 306 306 306 306 305 305 305 306 306 306 306
330 329 329 328 328 326 324 322 320 319 319 319 318 317 315 314 314 313 311 311 311 310 310 310 309 309 308 308 308 307 306 306 306 306 306 306 306 305 306 306 305 306
329 328 328 327 326 325 322 321 320 319 318 318 317 316 315 314 314 313 311 310 310 310 310 310 309 308 308 308 307 306 306 306 306 306 306 305 305 305 305 305 304 305
328 327 326 325 325 323 321 320 319 318 317 317 316 316 315 314 313 312 311 310 310 310 310 310 309 308 308 308 307 307 307 307 306 306 305 305 305 304 304 304 304 302
327 326 325 324 324 322 320 319 318 317 317 316 316 316 315 314 313 312 310 310 310 310 310 310 309 308 308 307 307 307 307 306 306 305 305 305 304 304 303 303 301 299
326 326 324 324 323 321 319 318 317 317 316 316 316 316 314 314 313 312 311 310 310 310 310 310 309 309 308 307 307 308 307 306 306 305 305 304 304 303 303 301 298 297
326 325 324 323 322 320 319 318 317 317 316 316 316 315 314 313 313 312 311 310 310 310 310 309 309 308 308 307 308 308 307 306 306 305 305 305 304 303 301 299 296 295
325 324 323 322 321 320 319 318 317 316 316 316 316 315 314 314 313 312 310 310 310 310 309 309 308 308 308 308 308 307 306 306 306 305 305 304 303 302 300 296 294 294
325 325 323 322 321 320 319 318 317 316 316 316 315 315 314 314 313 311 310 310 310 309 309 308 308 308 308 308 307 307 306 306 305 305 305 304 302 301 298 294 293 294
325 325 324 322 321 320 319 318 317 316 316 316 316 315 314 314 313 311 310 310 309 309 309 308 308 307 307 308 308 307 306 306 305 305 304 303 302 300 297 294 294 296
325 325 324 323 321 320 319 318 317 316 316 316 315 315 314 313 312 310 309 309 309 309 308 308 308 307 307 307 307 307 306 305 305 305 303 302 301 299 298 297 298 299
325 325 325 323 321 320 319 318 317 316 316 315 315 314 313 312 311 310 310 309 309 309 308 308 308 307 307 307 307 306 306 305 305 305 303 302 302 301 300 300 300 300
Wind_Speed
32 33 32 32 32 32 32 31 30 30 28 26 24 23 22 20 19 17 16 14 13 11 10 10 12 13 13 14 15 16 17 17 17 17 16 17 17 17 18 18 17 18
31 32 32 32 31 31 31 31 30 29 28 25 24 22 21 20 19 17 16 14 13 12 11 12 14 13 14 15 16 17 18 18 18 17 17 17 18 18 19 19 19 19
31 32 32 32 31 31 30 29 28 27 27 25 23 22 21 20 19 17 15 14 13 13 13 14 14 14 15 16 16 17 19 19 19 18 18 18 19 20 20 21 21 20
31 31 32 31 31 30 30 28 27 26 25 25 24 22 21 20 19 17 15 14 14 14 15 15 15 15 15 17 18 19 19 19 19 19 19 20 19 20 21 21 22 21
31 30 30 30 29 30 29 28 27 25 25 26 25 23 22 20 19 17 16 16 16 16 16 16 15 15 17 18 19 20 20 20 20 19 20 21 20 21 22 22 23 22
30 29 29 29 29 29 28 27 26 25 26 27 26 23 22 21 19 18 17 18 18 18 18 16 15 16 18 20 21 21 21 21 20 20 21 22 22 22 22 22 23 22
29 29 29 29 29 28 26 26 25 25 26 28 26 24 23 21 19 18 19 20 20 19 18 16 16 19 21 21 22 22 21 21 21 21 22 23 23 23 22 22 23 22
29 29 29 29 28 26 25 25 24 25 27 28 27 25 23 21 20 20 20 21 21 19 17 17 19 21 22 22 22 22 22 22 21 22 23 23 23 23 22 22 22 21
28 29 29 28 28 26 25 25 25 26 28 29 27 25 23 21 21 21 22 22 21 19 18 20 21 22 21 21 22 22 23 22 22 23 23 23 23 22 22 21 21 20
29 29 30 29 28 26 25 25 27 28 29 29 28 26 24 22 21 21 22 22 21 20 21 22 22 22 21 21 21 22 23 23 22 22 22 22 22 22 21 20 20 20
29 29 30 29 28 26 25 26 28 29 30 29 28 26 24 23 22 22 23 23 22 22 22 23 23 23 22 21 21 21 22 23 23 21 21 21 21 21 20 20 19 19
30 30 31 30 28 26 26 28 30 30 30 29 28 27 25 23 23 23 23 23 23 22 22 23 24 23 23 22 22 22 23 23 22 21 20 20 20 20 20 19 19 18
32 32 32 30 28 26 27 29 31 31 30 29 28 27 25 24 24 24 24 23 23 23 23 24 24 24 23 23 23 23 24 24 23 22 21 20 21 21 20 19 18 18
33 32 31 29 27 27 27 30 31 31 30 29 28 26 25 25 25 25 24 23 23 24 24 24 24 24 24 25 24 25 25 24 24 24 23 22 21 21 20 19 17 17
33 31 30 29 28 27 29 30 32 31 30 29 28 27 26 26 25 24 24 24 25 25 25 25 25 25 26 26 25 26 25 25 25 25 24 24 23 21 20 18 18 16
32 31 30 29 28 28 30 31 32 32 31 30 28 27 26 26 25 24 24 25 26 26 26 25 25 26 26 26 25 26 26 26 26 26 25 25 24 22 21 19 17 16
32 31 30 30 30 29 31 32 32 32 31 30 29 28 27 26 25 25 25 25 26 27 26 25 25 26 26 25 25 26 26 27 27 27 26 25 24 23 22 20 18 17
32 31 31 30 30 30 31 32 31 31 31 31 30 29 28 27 26 25 25 25 26 27 26 25 25 25 25 24 25 25 26 27 27 26 25 24 23 23 22 21 20 19
33 32 31 31 30 30 31 32 31 31 31 31 30 29 29 28 27 26 26 26 27 27 26 25 24 25 25 25 25 25 25 26 26 25 25 24 23 22 21 21 21 20
33 32 31 30 30 30 31 32 32 32 32 32 31 30 30 30 28 27 27 27 27 27 26 25 25 25 25 24 24 24 24 25 25 24 24 23 22 21 21 21 22 22
33 32 31 30 30 31 31 32 32 33 33 33 32 31 31 31 30 29 28 27 27 27 26 25 25 24 24 25 24 23 24 24 24 24 23 22 21 20 20 21 22 23
33 32 31 31 31 31 31 31 32 33 34 33 32 32 31 31 30 30 28 28 27 26 26 25 25 24 24 25 24 24 24 24 23 23 22 21 20 18 17 20 22 22
34 33 31 31 31 31 31 31 32 34 34 34 33 32 31 31 30 29 28 28 27 27 27 26 25 25 25 25 25 24 25 24 24 23 22 21 19 16 16 20 21 21
34 33 32 31 31 32 32 32 33 34 34 34 33 33 32 31 30 28 28 28 28 28 28 27 27 26 26 25 25 25 25 25 24 24 23 21 18 15 17 19 19 18
33 33 33 33 33 33 33 33 32 33 33 33 33 32 32 30 29 28 27 27 27 27 27 27 27 26 26 25 24 25 25 25 25 25 24 21 18 18 19 19 18 18
33 33 33 33 33 32 31 30 30 30 31 31 31 31 31 29 28 27 26 26 26 26 27 27 26 26 27 26 25 25 25 26 27 27 26 24 22 22 22 22 22 21
Wind_Direction
192 191 191 188 186 185 183 183 182 181 181 181 181 181 182 186 186 189 192 194 199 201 198 192 178 172 170 169 169 165 164 164 159 157 159 157 153 150 145 142 141 137
191 191 191 189 186 185 185 186 185 184 185 186 186 185 184 186 186 191 194 193 197 194 185 180 173 171 170 166 165 163 161 159 154 154 158 154 151 148 143 139 136 132
191 191 190 188 187 186 186 187 187 188 189 190 190 187 185 185 186 190 191 192 195 187 180 180 174 169 169 167 165 161 158 155 150 152 154 151 149 146 141 137 132 127
190 189 188 187 187 186 186 187 188 190 192 192 191 188 185 185 185 186 187 189 189 182 178 179 172 168 168 168 164 158 155 152 149 152 151 146 145 143 139 136 130 124
189 188 187 185 185 185 185 187 189 191 192 191 189 187 187 186 185 185 185 184 183 178 176 175 171 169 168 167 163 157 153 149 148 152 149 143 142 141 139 136 129 122
188 188 186 184 185 186 187 189 192 192 191 191 188 187 188 188 187 187 184 182 181 178 175 173 171 170 169 167 162 156 153 149 149 152 148 142 142 140 138 135 129 123
186 187 186 186 187 189 190 190 192 192 191 190 189 188 189 188 188 187 185 184 182 179 178 177 175 172 170 167 161 156 154 152 151 152 148 143 142 140 137 135 130 125
183 184 186 187 187 189 190 190 191 191 190 189 188 188 189 189 186 184 185 185 181 180 181 179 176 173 171 168 162 157 155 153 154 154 150 146 144 141 139 137 132 128
179 182 184 186 187 188 190 190 190 190 189 189 188 187 187 188 185 183 185 184 182 182 180 178 176 173 171 169 165 160 157 156 158 157 154 151 148 145 143 141 137 133
176 179 182 183 184 186 189 190 189 187 187 188 187 185 184 184 184 184 185 184 182 181 179 178 177 174 172 172 168 165 161 160 161 162 161 159 154 150 147 146 143 140
177 178 180 181 183 185 188 189 187 185 185 186 185 184 183 182 184 186 187 185 183 181 180 180 179 176 174 172 170 168 166 164 165 165 165 163 159 155 153 153 151 148
178 179 179 180 184 186 187 187 185 183 184 185 185 184 183 183 186 188 188 186 185 185 183 182 180 178 176 173 171 170 168 166 166 165 165 163 160 159 158 159 158 155
178 179 179 181 185 188 188 187 185 183 183 184 185 185 184 186 188 188 189 189 188 187 185 183 181 179 178 176 173 172 170 168 167 166 164 163 162 162 161 162 161 160
178 179 179 181 186 189 189 187 185 184 184 184 185 187 187 188 187 186 187 189 190 188 186 184 182 181 180 179 176 175 174 171 169 169 165 163 165 165 163 164 163 162
176 178 180 182 186 188 189 187 184 183 184 185 186 188 188 187 185 184 186 188 189 188 187 186 186 185 183 182 179 177 176 174 172 171 168 166 166 166 166 166 165 165
175 177 180 183 186 188 188 186 185 184 185 186 186 187 186 185 184 186 189 189 188 188 188 188 189 188 186 185 183 180 178 176 174 172 171 171 169 168 168 169 170 172
174 176 179 182 185 187 187 185 185 185 185 186 186 185 185 184 186 188 191 191 190 189 189 190 191 190 189 188 186 184 181 178 176 175 174 176 176 173 173 175 178 179
172 175 177 180 183 185 185 184 184 184 184 185 184 184 185 186 188 191 192 192 191 191 192 193 193 192 191 190 188 186 185 183 180 178 178 181 183 182 182 183 183 180
171 173 176 179 182 183 183 183 183 183 183 184 185 186 187 188 190 192 192 192 192 194 194 195 195 194 192 191 190 188 188 187 185 184 184 186 189 190 191 189 184 176
171 173 176 178 180 181 181 182 183 183 184 185 186 187 188 190 191 192 193 194 195 195 195 196 195 193 192 192 191 190 191 192 191 189 190 192 195 196 196 192 184 175
171 173 175 177 178 180 181 183 184 184 185 186 187 188 189 191 192 193 193 194 195 195 195 196 195 192 193 194 193 193 194 196 195 193 193 196 198 199 200 194 185 177
172 173 174 176 178 180 181 183 185 185 186 187 188 189 190 192 193 194 193 192 193 195 195 194 193 192 193 195 195 195 196 197 196 195 196 198 198 199 200 195 186 182
174 174 175 176 179 182 183 185 187 187 187 187 187 188 191 194 194 194 194 193 192 194 195 193 191 192 193 196 197 196 196 197 198 196 197 199 197 197 201 196 191 189
177 177 177 178 181 184 186 187 188 188 188 187 187 188 191 194 195 195 195 195 194 195 196 194 191 191 193 197 198 198 198 198 198 197 197 196 192 192 198 198 197 201
179 179 179 182 185 188 189 189 188 188 188 187 187 188 190 192 194 195 194 195 196 197 197 196 194 192 193 195 198 200 200 199 199 198 194 190 189 190 192 197 205 212
180 181 184 186 189 190 190 189 188 187 186 186 187 188 188 189 192 194 195 195 196 197 197 197 197 193 191 193 197 200 202 202 201 199 193 189 192 196 196 201 209 212